Regional Weather Roundup
Issued by NWS

Home | Current Version | Previous Version | Text Only | Print | Product List | Glossary Off
Versions: 1 2 3 4 5 6 7 8 9 10 11 12 13 14 15 16 17 18 19 20 21 22 23 24 25 26 27 28 29 30 31 32 33 34 35 36 37 38 39 40 41 42 43 44 45 46 47 48 49 50

534
ASUS44 KLIX 180510
RWRLA
LOUISIANA WEATHER ROUNDUP
NATIONAL WEATHER SERVICE NEW ORLEANS LA
1100 PM CST WED DEC 17 2014

NOTE: "FAIR" INDICATES FEW OR NO CLOUDS BELOW 12,000 FEET WITH NO
      SIGNIFICANT WEATHER AND/OR OBSTRUCTIONS TO VISIBILITY.
      SKY/WX - SKY CONDITION AND SIGNIFICANT WEATHER.
      TMP - AIR TEMPERATURE.    DP   - DEWPOINT TEMPERATURE.
      RH  - RELATIVE HUMIDITY.  PRES - PRESSURE.
      HX  - HEAT INDEX.         WCI  - WIND CHILL INDEX.

*  THESE STATIONS ARE NOT NWS OR FAA STATIONS AND ARE NOT UNDER
   NWS QUALITY CONTROL.

LAZ040-048-061>063-065-066-069-180600-
SOUTHEAST LOUISIANA

CITY           SKY/WX    TMP DP  RH WIND       PRES   REMARKS
N.O. AUDUBON     N/A     53  45  74 MISG        N/A
N.O. INTL ARPT CLOUDY    51  42  71 CALM      30.19F
N.O. LAKEFRONT CLOUDY    54  42  64 SE5       30.21S
N.O. DOWNTOWN* FAIR      55  39  54 CALM      30.20S
SLIDELL        CLOUDY    45  41  86 CALM      30.19F
BATON ROUGE    PTCLDY    48  41  76 NE3       30.18R
BOOTHVILLE     CLOUDY    55  50  83 NE3       30.20S
BELLE CHASSE   CLOUDY    47  43  86 NE3       30.19F
BOGALUSA*        N/A     45  42  88 CALM      30.21R
GALLIANO*      CLOUDY    56  48  74 MISG      30.18F
NEW ROADS*     FAIR      49  41  74 SE3       30.18F
GONZALES*      FAIR      47  44  87 CALM      30.18S
HAMMOND*       NOT AVBL
HOUMA*         CLOUDY    51  47  86 E5        30.17F
PORT FOURCHON* CLEAR     59  52  77 E9        30.19F

$$

LAZ041-044-053-054-180600-
SOUTHWEST LOUISIANA

CITY           SKY/WX    TMP DP  RH WIND       PRES   REMARKS
LAKE CHARLES   PTCLDY    50  45  83 CALM      30.15S
LAFAYETTE      PTCLDY    52  41  66 CALM      30.17S
PATTERSON      CLOUDY    52  45  76 E5        30.19R
SALT POINT       N/A     56  46  69 E5        30.16S
NEW IBERIA     MOCLDY    51  43  74 E6        30.18S
CHENAULT AIRPK PTCLDY    49  44  82 CALM      30.16S

$$

LAZ027-028-180600-
CENTRAL LOUISIANA

CITY           SKY/WX    TMP DP  RH WIND       PRES   REMARKS
FORT POLK      CLOUDY    50  42  74 VRB5      30.16R
ALEXANDRIA INT CLOUDY    49  42  77 E5        30.17S
ALEXANDRIA     CLOUDY    47  43  86 CALM      30.19S

$$

LAZ001-002-180600-
NORTHWEST LOUISIANA

CITY           SKY/WX    TMP DP  RH WIND       PRES   REMARKS
SHREVEPORT     LGT RAIN  46  42  86 N6        30.20R
BARKSDALE AFB  NOT AVBL
DTN SHREVEPORT LGT RAIN  45  40  82 VRB3      30.21R

$$

LAZ014-016-180600-
NORTHEAST LOUISIANA

CITY           SKY/WX    TMP DP  RH WIND       PRES   REMARKS
MONROE         CLOUDY    46  40  79 NE8       30.23R
TALLULAH       PTCLDY    44  38  79 E5        30.20F

$$




USA.gov is the U.S. government's official web portal to all federal, state and local government web resources and services.